Simultaneous Nadir Overpasses (SNOs) Predictions

Prediction of SNOs between METOP-A and NPP Satellite Orbit:

Table of predicted SNOs for the next 14.0 days since TLE Epoch: 9/4/2020
Index Date (METOP-A) Time (METOP-A) Lat,Lon (METOP-A) SZA (METOP-A ) Date (NPP) Time (NPP) Lat,Lon (NPP) SZA (NPP ) Distance(km) Time Diff (sec)
1 09/04/2020 22:44:39 -75.72, 3.12 110.56 09/04/2020 22:44:58 -75.74, 3.07 110.53 3.12 19
2 09/04/2020 23:35:19 75.71, 170.42 69.45 09/04/2020 23:35:43 75.71, 170.47 69.45 1.76 24
3 09/05/2020 00:26:00 -75.70, -22.28 110.54 09/05/2020 00:26:26 -75.70, -22.17 110.56 3.03 26
4 09/05/2020 01:16:39 75.74, 145.17 69.50 09/05/2020 01:17:12 75.72, 145.09 69.48 3.00 33
5 09/05/2020 02:07:21 -75.73, -47.53 110.50 09/05/2020 02:07:56 -75.70, -47.55 110.53 2.94 35
6 09/05/2020 02:58:01 75.72, 119.77 69.51 09/05/2020 02:58:42 75.72, 119.70 69.51 1.79 41
7 09/05/2020 03:48:43 -75.71, -72.93 110.48 09/05/2020 03:49:26 -75.71, -72.94 110.50 0.60 43
8 09/05/2020 04:39:23 75.70, 94.37 69.52 09/05/2020 04:40:12 75.72, 94.32 69.54 3.03 49
9 09/05/2020 05:30:05 -75.69, -98.32 110.47 09/05/2020 05:30:56 -75.71, -98.33 110.47 1.88 51
10 09/05/2020 06:20:45 75.68, 68.97 69.54 09/05/2020 06:21:41 75.68, 69.08 69.51 3.00 56
11 09/05/2020 07:11:26 -75.72,-123.57 110.42 09/05/2020 07:12:26 -75.71,-123.71 110.44 3.86 60
12 09/05/2020 08:02:06 75.71, 43.72 69.58 09/05/2020 08:03:11 75.68, 43.70 69.54 3.07 65
13 09/05/2020 08:52:48 -75.70,-148.97 110.41 09/05/2020 08:53:56 -75.72,-149.10 110.41 3.68 68
14 09/05/2020 09:43:28 75.69, 18.32 69.60 09/05/2020 09:44:41 75.69, 18.31 69.57 0.71 73
15 09/05/2020 10:34:11 -75.64,-174.51 110.44 09/05/2020 10:35:25 -75.67,-174.33 110.44 6.31 74
16 09/05/2020 11:24:56 75.39, -7.93 69.39 09/05/2020 11:26:06 75.46, -6.34 69.33 45.32 70
17 09/05/2020 12:15:40 -75.29, 159.10 110.67 09/05/2020 12:16:48 -75.35, 161.30 110.79 62.49 68
